[[{"header":{"parameterUnit":"m.s-1","parameterCategory":1,"la1":30.2991,"la2":30.254,"lo1":-89.0895,"lo2":-89.0444,"dy":0.0017,"dx":0.0017,"nx":28,"ny":28,"refTime":"2024-06-22T21:00:00:Z","depth":0,"parameterNumber":2,"parameterNumberName":"U-component_of_WINDS"},"data":[0,0,0,0,0,0,0,0,0,0,0,0,0,0,0,0,0,0,0,0,0,0,0,0,0,0,0,0,0,0,0,0,0,0,0,0,0,0,0,0,0,0,0,0,0,0,0,0,0,0,0,0,0,0,0,0,0,0,2.3459,2.346,0,2.3496,2.3496,2.3497,2.3461,2.3459,2.3458,2.3457,2.3497,2.3499,2.3501,0,0,0,0,0,0,0,0,0,0,0,0,0,2.3362,2.3364,2.3459,2.346,2.346,2.3496,2.3496,2.3497,2.3461,2.3459,2.3458,2.3456,2.3496,2.3499,2.3501,0,0,0,0,0,0,0,0,0,0,0,0,0,2.3402,2.3364,2.3459,2.3447,2.3446,2.3496,2.3496,2.3497,2.3461,2.3459,2.3457,2.3455,2.3495,2.3498,2.3502,2.3567,0,0,2.3513,2.3514,0,0,0,0,0,0,0,0,2.34,2.3405,2.3448,2.3448,2.3447,2.3472,2.3476,2.352,2.3462,2.3456,2.3457,2.3454,2.349,2.3494,2.3506,2.3569,2.357,2.3513,2.3515,2.3517,2.3518,0,0,0,0,0,0,0,2.3397,2.3404,2.3474,2.3449,2.3448,2.344,2.3444,2.3485,2.3485,2.3456,2.3454,2.3458,2.3489,2.3502,2.3506,2.3571,2.3513,2.3516,2.3518,2.352,2.369,2.3692,0,0,0,0,0,0,2.3395,2.3402,2.3473,2.3475,2.3417,2.3444,2.3447,2.3466,2.3484,2.3485,2.346,2.3456,2.3497,2.3502,2.3508,2.3585,2.3517,2.352,2.3522,2.3687,2.369,2.3693,0,0,0,0,0,0,2.3393,2.3402,2.3471,2.3438,2.3446,2.3448,2.3469,2.3468,2.348,2.3487,2.3487,2.3473,2.3496,2.3502,2.3552,2.3586,2.3522,2.3525,2.3685,2.3688,2.3691,2.374,0,0,0,0,0,0,2.339,2.3401,2.3425,2.3438,2.3448,2.3515,2.3471,2.347,2.3486,2.3482,2.3499,2.35,2.3494,2.3547,2.3556,2.3589,2.3528,2.3682,2.3686,2.369,2.3735,2.3745,2.3753,0,0,0,0,0,2.3387,2.3438,2.3427,2.3435,2.3478,2.3517,2.3522,2.3514,2.3489,2.3514,2.3518,2.3499,2.3581,2.3552,2.3562,2.3597,2.3679,2.3685,2.369,2.3731,2.3743,2.3752,0,0,0,0,0,0,2.3429,2.3439,2.3427,2.3483,2.3499,2.351,2.3541,2.3526,2.355,2.3546,2.3536,2.354,2.3592,2.36,2.3568,2.3661,2.3626,2.3634,2.3654,2.3665,2.3674,2.3671,2.3531,0,0,0,0,0,2.3445,2.3475,2.3482,2.3531,2.354,2.3539,2.3556,2.3549,2.3565,2.3572,2.358,2.3597,2.3627,2.3647,2.3674,2.3736,2.374,2.3766,2.3774,2.3781,2.3788,2.3822,2.3833,2.371,2.371,2.371,0,0,2.3478,2.3487,2.3506,2.354,2.3551,2.3584,2.3545,2.3581,2.3605,2.3578,2.3625,2.3631,2.365,2.3707,2.3732,2.3715,2.3823,2.3788,2.3794,2.3796,2.3828,2.384,2.385,2.3714,2.3713,2.3713,0,0,2.3554,2.3564,2.3606,2.3618,2.3636,2.3635,2.3645,2.3659,2.3662,2.3709,2.369,2.3719,2.377,2.3784,2.3798,2.3881,2.3865,2.389,2.3936,2.3969,2.3979,2.3987,2.4017,2.4027,2.3897,2.3897,2.3897,0,2.3592,2.3639,2.3629,2.3666,2.3682,2.3658,2.3701,2.3714,2.3741,2.3752,2.3732,2.3796,2.3807,2.3867,2.3887,2.3899,2.3911,2.3888,2.3978,2.3986,2.3994,2.4022,2.4033,2.39,2.39,2.3899,2.3899,0,2.3686,2.3719,2.3751,2.3776,2.3796,2.3836,2.3833,2.3854,2.3845,2.3847,2.3896,2.3908,2.3938,2.3952,2.3944,2.4011,2.3999,2.3979,2.3943,2.4009,2.4035,2.4046,2.3904,2.3903,2.3902,2.3902,0,0,2.3789,2.3809,2.3821,2.3832,2.385,2.3876,2.3916,2.3944,2.3962,2.3982,2.4015,2.4059,2.404,2.4056,2.405,2.4079,2.4144,2.4055,2.4055,2.4071,2.4219,2.4234,2.4246,2.4134,2.4136,2.4137,2.4217,0,2.3866,2.3933,2.3926,2.399,2.4021,2.3999,2.4034,2.4049,2.4053,2.408,2.4083,2.4115,2.4087,2.4097,2.4125,2.413,2.4174,2.4124,2.4165,2.4166,2.416,2.426,2.4276,2.4351,2.4227,2.4229,2.423,0,2.3964,2.3986,2.4053,2.4067,2.408,2.4111,2.4137,2.4163,2.4181,2.4181,2.4199,2.4188,2.4229,2.4192,2.4249,2.4215,2.4232,2.4237,2.424,2.4243,2.4202,2.4266,2.4374,2.4385,2.4246,2.4245,2.4244,0,2.4032,2.4079,2.4125,2.4136,2.4153,2.4176,2.4184,2.42,2.4218,2.4241,2.4252,2.428,2.4296,2.4318,2.4315,2.4289,2.4372,2.4336,2.4374,2.4374,2.4392,2.4391,2.4504,2.4403,2.4403,2.4403,2.4403,0,2.4118,2.416,2.4156,2.4185,2.4232,2.4223,2.427,2.4276,2.4291,2.4321,2.4304,2.4333,2.4327,2.4356,2.4355,2.4401,2.4409,2.441,2.4409,2.4412,2.4411,2.4422,2.4416,2.4406,2.4405,2.4405,2.4404,0,2.4202,2.4201,2.425,2.4263,2.4267,2.4301,2.4312,2.434,2.4342,2.438,2.4389,2.4392,2.4425,2.4425,2.4463,2.4461,2.4519,2.4512,2.4513,2.4511,2.4549,2.4546,2.4673,2.4689,2.4578,2.4579,2.458,0,2.4256,2.4288,2.4305,2.4323,2.4333,2.4363,2.4381,2.4375,2.4395,2.4418,2.4443,2.4474,2.4499,2.4554,2.456,2.4589,2.4583,2.4625,2.4587,2.4588,2.4583,2.4581,2.4584,2.4633,2.4634,2.4635,2.4636,0,2.4354,2.4352,2.4378,2.4405,2.4426,2.4447,2.4466,2.4483,2.4479,2.4502,2.4535,2.4554,2.4593,2.4625,2.4653,2.4663,2.4649,2.4648,2.4658,2.4661,2.466,2.466,2.4533,2.4645,2.4644,2.4643,2.4643,2.4643,2.4425,2.4452,2.4468,2.4498,2.4511,2.453,2.4556,2.4561,2.4589,2.4619,2.4614,2.4652,2.467,2.4706,2.4718,2.4748,2.4733,2.4748,2.4752,2.4756,2.476,2.4655,2.4753,2.4753,2.4753,2.4753,2.4752,0,2.4521,2.453,2.4558,2.4585,2.4609,2.4593,2.4614,2.4635,2.4668,2.4685,2.471,2.4749,2.478,2.4789,2.4819,2.4841,2.4835,2.4849,2.4847,2.485,2.4771,2.4759,2.4853,2.4853,2.4853,2.4853,2.4853,2.4853,2.4574,2.4619,2.462,2.4672,2.4681,2.4717,2.473,2.4747,2.4761,2.4805,2.483,2.4836,2.485,2.4881,2.4909,2.4911,2.4923,2.4939,2.4938,2.4865,2.4855,2.4845,2.4834,2.4942,2.4942,2.5014,2.5014,2.5015]},{"header":{"parameterUnit":"m.s-1","parameterCategory":1,"la1":30.2991,"la2":30.254,"lo1":-89.0895,"lo2":-89.0444,"dy":0.0017,"dx":0.0017,"nx":28,"ny":28,"refTime":"2024-06-22T21:00:00:Z","depth":0,"parameterNumber":3,"parameterNumberName":"V-component_of_WINDS"},"data":[0,0,0,0,0,0,0,0,0,0,0,0,0,0,0,0,0,0,0,0,0,0,0,0,0,0,0,0,0,0,0,0,0,0,0,0,0,0,0,0,0,0,0,0,0,0,0,0,0,0,0,0,0,0,0,0,0,0,0.9514,0.9514,0,0.9564,0.9565,0.9565,0.9554,0.9553,0.9553,0.9552,0.9602,0.9605,0.9607,0,0,0,0,0,0,0,0,0,0,0,0,0,0.9406,0.9408,0.9514,0.9514,0.9515,0.9564,0.9565,0.9565,0.9555,0.9553,0.9552,0.9551,0.9602,0.9604,0.9607,0,0,0,0,0,0,0,0,0,0,0,0,0,0.9454,0.9408,0.9514,0.9516,0.9516,0.9564,0.9565,0.9566,0.9555,0.9553,0.9552,0.9551,0.9601,0.9604,0.9607,0.9656,0,0,0.9618,0.9619,0,0,0,0,0,0,0,0,0.9451,0.9458,0.9515,0.9515,0.9516,0.9552,0.9545,0.9596,0.9555,0.954,0.9552,0.955,0.9587,0.9591,0.9603,0.9658,0.9661,0.9618,0.962,0.9621,0.9622,0,0,0,0,0,0,0,0.9448,0.9456,0.9534,0.9515,0.9516,0.9513,0.9518,0.9555,0.9571,0.9541,0.9541,0.9547,0.9587,0.96,0.9605,0.9661,0.9618,0.9621,0.9623,0.9624,0.9756,0.9757,0,0,0,0,0,0,0.9444,0.9453,0.9532,0.9535,0.948,0.9516,0.9522,0.9542,0.957,0.9573,0.9548,0.9546,0.9595,0.9601,0.9606,0.9664,0.9621,0.9624,0.9626,0.9755,0.9756,0.9758,0,0,0,0,0,0,0.9442,0.9451,0.953,0.9494,0.9504,0.9519,0.9542,0.9543,0.9557,0.9575,0.9578,0.9559,0.9594,0.9602,0.9643,0.9665,0.9626,0.9629,0.9753,0.9755,0.9757,0.978,0,0,0,0,0,0,0.9439,0.9451,0.947,0.9494,0.9506,0.9567,0.9543,0.9545,0.9563,0.9561,0.9586,0.9589,0.9594,0.9638,0.9647,0.9669,0.9632,0.9751,0.9754,0.9756,0.9777,0.9783,0.9787,0,0,0,0,0,0.9435,0.9475,0.9471,0.9481,0.953,0.9568,0.9575,0.958,0.9565,0.9584,0.9595,0.9588,0.9662,0.9643,0.9652,0.9676,0.9749,0.9753,0.9756,0.9775,0.9782,0.9787,0,0,0,0,0,0,0.9453,0.9478,0.9474,0.9523,0.9544,0.9566,0.9591,0.9587,0.9612,0.9609,0.9613,0.9619,0.9661,0.9673,0.9651,0.9723,0.9703,0.9709,0.9714,0.9721,0.9726,0.9722,0.9634,0,0,0,0,0,0.9462,0.9492,0.9512,0.9553,0.9563,0.9575,0.9592,0.9594,0.9615,0.9624,0.9638,0.9659,0.9686,0.9704,0.973,0.9779,0.9783,0.9799,0.9804,0.9808,0.9813,0.9838,0.9845,0.9769,0.9769,0.9769,0,0,0.9483,0.95,0.9518,0.9557,0.9573,0.9602,0.9583,0.9615,0.9636,0.9628,0.9668,0.9679,0.9702,0.9747,0.9767,0.9758,0.9835,0.9813,0.9816,0.9818,0.9842,0.9849,0.9855,0.9771,0.9771,0.9771,0,0,0.9534,0.9551,0.9586,0.9602,0.9627,0.9634,0.9642,0.9665,0.9672,0.9712,0.9706,0.9731,0.9779,0.9795,0.9809,0.9864,0.9858,0.9872,0.9899,0.9923,0.9928,0.9934,0.9952,0.9959,0.9877,0.9877,0.9877,0,0.9557,0.9601,0.9605,0.9637,0.9654,0.9647,0.9682,0.9697,0.9729,0.974,0.9729,0.9787,0.9802,0.9849,0.9862,0.9875,0.9883,0.987,0.9927,0.9933,0.9938,0.9955,0.9962,0.9878,0.9878,0.9878,0.9878,0,0.9626,0.9657,0.9682,0.9712,0.9732,0.9765,0.9773,0.9792,0.9791,0.9799,0.9839,0.9856,0.9885,0.9896,0.9897,0.9943,0.9936,0.9926,0.9906,0.9946,0.9963,0.997,0.9881,0.988,0.988,0.9879,0,0,0.9692,0.9723,0.9732,0.9744,0.977,0.9793,0.9825,0.9853,0.9868,0.989,0.9916,0.9955,0.9945,0.9962,0.9963,0.9984,1.0024,0.9971,0.9972,0.998,1.0075,1.0082,1.009,1.0021,1.0022,1.0023,1.0073,0,0.9746,0.9803,0.9806,0.9858,0.9885,0.9878,0.9906,0.9924,0.9931,0.9955,0.9963,0.999,0.9976,0.9985,1.0006,1.0015,1.0044,1.0012,1.0044,1.0045,1.0039,1.0099,1.0108,1.0154,1.008,1.0081,1.0082,0,0.9816,0.9839,0.9893,0.9912,0.9924,0.9949,0.9974,0.9997,1.0016,1.002,1.0037,1.0035,1.0066,1.0045,1.0087,1.0065,1.0078,1.0085,1.0087,1.009,1.0066,1.0103,1.0169,1.0176,1.0092,1.0091,1.009,0,0.9858,0.9902,0.9939,0.9951,0.9974,0.9992,1.0002,1.002,1.0036,1.0057,1.0067,1.0092,1.0105,1.0124,1.0128,1.0112,1.017,1.0149,1.0173,1.0173,1.0186,1.0186,1.0255,1.0195,1.0195,1.0195,1.0195,0,0.9917,0.995,0.9958,0.9981,1.0018,1.002,1.0056,1.0065,1.008,1.0104,1.0099,1.0122,1.0126,1.0149,1.0152,1.0186,1.0192,1.0195,1.0196,1.0196,1.0195,1.0204,1.0201,1.0197,1.0197,1.0196,1.0196,0,0.997,0.9977,1.0017,1.0035,1.0041,1.0066,1.0082,1.0103,1.0109,1.014,1.0147,1.0157,1.0183,1.0188,1.022,1.0222,1.0262,1.0259,1.0256,1.0255,1.0279,1.0276,1.0356,1.0366,1.0301,1.0301,1.0302,0,1.0007,1.0032,1.0053,1.0068,1.008,1.0105,1.0121,1.0124,1.014,1.0162,1.0181,1.0206,1.0227,1.0269,1.0279,1.0302,1.03,1.0326,1.0304,1.0302,1.0299,1.0298,1.03,1.0331,1.0331,1.0332,1.0332,0,1.0072,1.0074,1.0097,1.0121,1.014,1.0159,1.0177,1.0189,1.0194,1.0213,1.0239,1.0255,1.0287,1.0312,1.0335,1.0345,1.0339,1.0339,1.0346,1.0346,1.0343,1.0344,1.0267,1.0338,1.0337,1.0337,1.0336,1.0336,1.0118,1.0139,1.0156,1.0182,1.0195,1.0212,1.0232,1.024,1.0263,1.0289,1.0288,1.0317,1.0333,1.0364,1.0375,1.0397,1.0388,1.0398,1.0401,1.0403,1.0405,1.0339,1.0401,1.0401,1.0401,1.04,1.04,0,1.0182,1.0192,1.0215,1.024,1.026,1.0252,1.0271,1.0288,1.0313,1.0329,1.0349,1.0378,1.0402,1.0413,1.0436,1.0451,1.0449,1.0457,1.0456,1.0458,1.0411,1.0403,1.0458,1.0458,1.0458,1.0458,1.0458,1.0458,1.0217,1.0253,1.0256,1.0297,1.0307,1.0335,1.0346,1.0361,1.0373,1.0406,1.0426,1.0432,1.0445,1.0469,1.049,1.0492,1.0501,1.051,1.0511,1.0467,1.0461,1.0456,1.0448,1.0512,1.0512,1.0555,1.0556,1.0556]}]]